{"data":{"norad_id":44785,"intl_designator":"2019-077A","name":"KL-ALPHA A","alt_names":[],"object_type":"PAYLOAD","status":"ACTIVE","operator":null,"country":"GER","launch_date":"2019-11-17","launch_site_code":"JSC","launch_vehicle":null,"mission":null,"orbit_class":"UNKNOWN","rcs_meters":null,"size_class":null,"mass_kg":null,"dimensions":null,"purposes":[],"wikipedia_slug":null,"has_3d_model":false,"image_url":null,"decayed_at":null,"tle_current":{"epoch":"2026-09-20T05:35:05.253216Z","epoch_age_seconds":84861,"freshness":"FRESH","line1":"1 44785U 19077A   26263.23269969  .00000057  00000+0  63620-4 0  9999","line2":"2 44785  88.9315 212.1825 0010175 181.2451 178.8679 13.56050174338610","mean_motion":13.56050174,"eccentricity":0.0010175,"inclination_deg":88.9315,"raan_deg":212.1825,"arg_perigee_deg":181.2451,"mean_anomaly_deg":178.8679,"bstar":6.362e-5,"rev_number":33861,"period_min":106.1907610507,"perigee_km":1042.5232679054,"apogee_km":1057.6396925127,"semimajor_km":7428.2184802091,"source":"CELESTRAK","updated_at":"2026-09-20T09:00:14.543057Z"}}}